This is the latest recevied weather packets stored in our database for station/object K7SPS-10. If no packets are shown the sender has not sent any weather packets the latest 10 day(s).
| Time | Temp. | Humidity | Pressure | Rain* | Wind** | Luminosity | Snow |
|---|---|---|---|---|---|---|---|
| 1777758183 | 25.56° C | 29% | 1014.7 hPa | 0 mm | - | 741 W/m² | - |
| 1777757880 | 25° C | 28% | 1014.9 hPa | 0 mm | - | 743 W/m² | - |
| 1777757577 | 24.44° C | 27% | 1014.9 hPa | 0 mm | - | 449 W/m² | - |
| 1777757276 | 23.89° C | 29% | 1015.2 hPa | 0 mm | - | 465 W/m² | - |
| 1777756974 | 25° C | 30% | 1015.1 hPa | 0 mm | - | 458 W/m² | - |
| 1777756669 | 24.44° C | 31% | 1015.2 hPa | 0 mm | - | 526 W/m² | - |
| 1777756366 | 23.89° C | 30% | 1015.5 hPa | 0 mm | - | 657 W/m² | - |
| 1777756064 | 24.44° C | 30% | 1015.4 hPa | 0 mm | - | 674 W/m² | - |
| 1777755761 | 24.44° C | 32% | 1015.6 hPa | 0 mm | - | 709 W/m² | - |
| 1777755458 | 23.89° C | 31% | 1015.8 hPa | 0 mm | - | 727 W/m² | - |
| 1777755154 | 23.89° C | 31% | 1015.5 hPa | 0 mm | - | 807 W/m² | - |
| 1777754851 | 24.44° C | 31% | 1015.9 hPa | 0 mm | - | 622 W/m² | - |
| 1777754549 | 23.89° C | 31% | 1015.8 hPa | 0 mm | - | 612 W/m² | - |
| 1777754246 | 23.33° C | 32% | 1016.1 hPa | 0 mm | - | 412 W/m² | - |
| 1777753945 | 23.89° C | 32% | 1015.9 hPa | 0 mm | - | 572 W/m² | - |
| 1777753644 | 23.33° C | 32% | 1016.1 hPa | 0 mm | - | 709 W/m² | - |
| 1777753342 | 23.33° C | 33% | 1016.3 hPa | 0 mm | - | 731 W/m² | - |
| 1777753040 | 23.89° C | 33% | 1016.3 hPa | 0 mm | - | 771 W/m² | - |
| 1777752736 | 22.78° C | 34% | 1016.3 hPa | 0 mm | - | 772 W/m² | - |
| 1777752432 | 23.33° C | 34% | 1016.5 hPa | 0 mm | - | 622 W/m² | - |
| 1777752128 | 22.78° C | 36% | 1016.3 hPa | 0 mm | - | 642 W/m² | - |
| 1777751827 | 22.22° C | 35% | 1016.4 hPa | 0 mm | - | 739 W/m² | - |
| 1777751523 | 22.22° C | 37% | 1016.6 hPa | 0 mm | - | 792 W/m² | - |
| 1777751220 | 22.78° C | 36% | 1016.5 hPa | 0 mm | - | 852 W/m² | - |
| 1777750916 | 22.22° C | 39% | 1016.7 hPa | 0 mm | - | 698 W/m² | - |
* Rain latest hour (hover to see other rain measurements)
** Current wind speed in m/s (hover to see current wind gust speed)